| time (UTC) | temp F | wind direction | speed MPH | gust MPH | rain 1hr in | rain 24hr in | rain mn in | humidity % | barometer mb |
| 20260509170330 | 63 | 241 | 6.0 | 8.0 | 0.00 | 0.00 | 0.00 | 46 | 1012.3 |
| 20260509165824 | 63 | 245 | 5.0 | 6.0 | 0.00 | 0.00 | 0.00 | 48 | 1012.3 |
| 20260509165319 | 63 | 256 | 3.0 | 8.0 | 0.00 | 0.00 | 0.00 | 47 | 1012.3 |
| 20260509164815 | 62 | 228 | 2.0 | 8.0 | 0.00 | 0.00 | 0.00 | 47 | 1012.5 |
| 20260509164312 | 61 | 123 | 1.0 | 3.0 | 0.00 | 0.00 | 0.00 | 49 | 1012.2 |
| 20260509163808 | 61 | 223 | 0.0 | 3.0 | 0.00 | 0.00 | 0.00 | 49 | 1012.3 |
| 20260509163305 | 61 | 204 | 2.0 | 5.0 | 0.00 | 0.00 | 0.00 | 48 | 1012.5 |
| 20260509162804 | 61 | 131 | 2.0 | 4.0 | 0.00 | 0.00 | 0.00 | 54 | 1012.5 |
| 20260509162257 | 61 | 199 | 2.0 | 3.0 | 0.00 | 0.00 | 0.00 | 50 | 1012.4 |
| 20260509161753 | 60 | 202 | 0.0 | 3.0 | 0.00 | 0.00 | 0.00 | 51 | 1012.5 |
| 20260509161249 | 60 | 209 | 0.0 | 2.0 | 0.00 | 0.00 | 0.00 | 49 | 1012.5 |
| 20260509160745 | 61 | 229 | 3.0 | 3.0 | 0.00 | 0.00 | 0.00 | 51 | 1012.2 |
| 20260509160241 | 60 | 336 | 0.0 | 5.0 | 0.00 | 0.00 | 0.00 | 51 | 1012.3 |
| 20260509155737 | 60 | 218 | 1.0 | 2.0 | 0.00 | 0.00 | 0.00 | 49 | 1012.7 |
| 20260509155234 | 61 | 230 | 6.0 | 6.0 | 0.00 | 0.00 | 0.00 | 59 | 1012.8 |
| 20260509154729 | 60 | 212 | 2.0 | 4.0 | 0.00 | 0.00 | 0.00 | 55 | 1012.7 |
| 20260509154227 | 60 | 221 | 4.0 | 7.0 | 0.00 | 0.00 | 0.00 | 56 | 1012.8 |
| 20260509153724 | 59 | 219 | 3.0 | 4.0 | 0.00 | 0.00 | 0.00 | 58 | 1012.8 |
| 20260509153220 | 59 | 48 | 1.0 | 2.0 | 0.00 | 0.00 | 0.00 | 60 | 1012.9 |
| 20260509152716 | 58 | 203 | 1.0 | 2.0 | 0.00 | 0.00 | 0.00 | 58 | 1013.2 |
| 20260509152213 | 59 | 311 | 2.0 | 2.0 | 0.00 | 0.00 | 0.00 | 58 | 1013.5 |
| 20260509151710 | 58 | 81 | 0.0 | 1.0 | 0.00 | 0.00 | 0.00 | 60 | 1013.3 |
| 20260509151207 | 57 | 301 | 0.0 | 1.0 | 0.00 | 0.00 | 0.00 | 63 | 1013.3 |
| 20260509150705 | 57 | 36 | 0.0 | 3.0 | 0.00 | 0.00 | 0.00 | 65 | 1013.4 |
| 20260509150203 | 58 | 255 | 1.0 | 3.0 | 0.00 | 0.00 | 0.00 | 65 | 1013.4 |
| 20260509145659 | 58 | 202 | 3.0 | 4.0 | 0.00 | 0.00 | 0.00 | 65 | 1013.3 |
| 20260509145154 | 58 | 237 | 0.0 | 4.0 | 0.00 | 0.00 | 0.00 | 64 | 1013.0 |
| 20260509144651 | 58 | 321 | 2.0 | 4.0 | 0.00 | 0.00 | 0.00 | 64 | 1013.2 |
| 20260509144148 | 58 | 347 | 2.0 | 3.0 | 0.00 | 0.00 | 0.00 | 64 | 1013.0 |
| 20260509143645 | 57 | 328 | 1.0 | 4.0 | 0.00 | 0.00 | 0.00 | 69 | 1013.2 |
| 20260509143143 | 57 | 338 | 1.0 | 3.0 | 0.00 | 0.00 | 0.00 | 71 | 1013.2 |
| 20260509142638 | 57 | 350 | 3.0 | 4.0 | 0.00 | 0.00 | 0.00 | 67 | 1013.1 |
| 20260509142135 | 57 | 8 | 3.0 | 6.0 | 0.00 | 0.00 | 0.00 | 66 | 1013.2 |
| 20260509141631 | 56 | 142 | 0.0 | 2.0 | 0.00 | 0.00 | 0.00 | 68 | 1013.1 |
| 20260509141127 | 56 | 335 | 3.0 | 3.0 | 0.00 | 0.00 | 0.00 | 73 | 1013.0 |
| 20260509140624 | 54 | 28 | 0.0 | 3.0 | 0.00 | 0.00 | 0.00 | 71 | 1013.0 |
| 20260509140122 | 55 | 235 | 3.0 | 3.0 | 0.00 | 0.00 | 0.00 | 72 | 1013.3 |
| 20260509135619 | 53 | 240 | 0.0 | 1.0 | 0.00 | 0.00 | 0.00 | 73 | 1013.4 |
| 20260509135117 | 54 | 68 | 2.0 | 3.0 | 0.00 | 0.00 | 0.00 | 73 | 1013.1 |
| 20260509134613 | 53 | 101 | 2.0 | 2.0 | 0.00 | 0.00 | 0.00 | 74 | 1013.3 |
| 20260509134111 | 53 | 240 | 2.0 | 2.0 | 0.00 | 0.00 | 0.00 | 74 | 1013.3 |
| 20260509133608 | 52 | 283 | 1.0 | 1.0 | 0.00 | 0.00 | 0.00 | 76 | 1013.5 |
| 20260509133105 | 52 | 186 | 0.0 | 3.0 | 0.00 | 0.00 | 0.00 | 76 | 1013.7 |
| 20260509132603 | 52 | 248 | 0.0 | 1.0 | 0.00 | 0.00 | 0.00 | 77 | 1013.6 |
| 20260509132102 | 52 | 81 | 1.0 | 2.0 | 0.00 | 0.00 | 0.00 | 77 | 1013.4 |
| 20260509131557 | 52 | 52 | 0.0 | 2.0 | 0.00 | 0.00 | 0.00 | 79 | 1013.4 |
| 20260509131054 | 51 | 36 | 0.0 | 3.0 | 0.00 | 0.00 | 0.00 | 77 | 1013.4 |
| 20260509130550 | 52 | 21 | 3.0 | 3.0 | 0.00 | 0.00 | 0.00 | 77 | 1013.7 |
| 20260509130047 | 51 | 310 | 0.0 | 1.0 | 0.00 | 0.00 | 0.00 | 81 | 1013.4 |
| 20260509125543 | 51 | 50 | 1.0 | 2.0 | 0.00 | 0.00 | 0.00 | 82 | 1013.3 |
| 20260509125040 | 50 | 319 | 0.0 | 2.0 | 0.00 | 0.00 | 0.00 | 82 | 1013.3 |
| 20260509124536 | 51 | 233 | 1.0 | 3.0 | 0.00 | 0.00 | 0.00 | 82 | 1013.5 |
| 20260509124034 | 50 | 89 | 0.0 | 0.0 | 0.00 | 0.00 | 0.00 | 83 | 1013.1 |
| 20260509123532 | 50 | 22 | 0.0 | 1.0 | 0.00 | 0.00 | 0.00 | 83 | 1013.2 |
| 20260509123027 | 50 | 357 | 3.0 | 3.0 | 0.00 | 0.00 | 0.00 | 83 | 1013.4 |
| 20260509122523 | 50 | 17 | 2.0 | 3.0 | 0.00 | 0.00 | 0.00 | 83 | 1013.3 |
| 20260509122020 | 51 | 78 | 1.0 | 2.0 | 0.00 | 0.00 | 0.00 | 83 | 1013.2 |
| 20260509121512 | 50 | 60 | 0.0 | 1.0 | 0.00 | 0.00 | 0.00 | 80 | 1013.3 |
| 20260509121010 | 50 | 219 | 0.0 | 0.0 | 0.00 | 0.00 | 0.00 | 80 | 1013.4 |
| 20260509120508 | 50 | 22 | 0.0 | 1.0 | 0.00 | 0.00 | 0.00 | 79 | 1013.4 |
| 20260509120006 | 50 | 31 | 2.0 | 2.0 | 0.00 | 0.00 | 0.00 | 79 | 1013.3 |
| 20260509115503 | 50 | 55 | 1.0 | 2.0 | 0.00 | 0.00 | 0.00 | 80 | 1013.4 |
| 20260509115000 | 50 | 32 | 0.0 | 0.0 | 0.00 | 0.00 | 0.00 | 80 | 1013.5 |
| 20260509114458 | 50 | 44 | 0.0 | 1.0 | 0.00 | 0.00 | 0.00 | 80 | 1013.6 |
| 20260509113957 | 50 | 29 | 0.0 | 1.0 | 0.00 | 0.00 | 0.00 | 81 | 1013.7 |
| 20260509113454 | 49 | 73 | 1.0 | 3.0 | 0.00 | 0.00 | 0.00 | 82 | 1013.5 |
| 20260509112951 | 49 | 92 | 2.0 | 2.0 | 0.00 | 0.00 | 0.00 | 86 | 1013.7 |
| 20260509112448 | 49 | 34 | 0.0 | 0.0 | 0.00 | 0.00 | 0.00 | 87 | 1013.9 |
| 20260509111944 | 49 | 55 | 0.0 | 0.0 | 0.00 | 0.00 | 0.00 | 88 | 1013.5 |
| 20260509111442 | 48 | 89 | 0.0 | 0.0 | 0.00 | 0.00 | 0.00 | 88 | 1013.6 |
| 20260509110940 | 48 | 32 | 0.0 | 0.0 | 0.00 | 0.00 | 0.00 | 87 | 1013.4 |
| 20260509110435 | 48 | 47 | 0.0 | 0.0 | 0.00 | 0.00 | 0.00 | 88 | 1013.6 |
| 20260509105934 | 48 | 180 | 0.0 | 1.0 | 0.00 | 0.00 | 0.00 | 88 | 1013.6 |
| 20260509105432 | 48 | 180 | 1.0 | 2.0 | 0.00 | 0.00 | 0.00 | 88 | 1013.7 |
| 20260509104929 | 48 | 210 | 0.0 | 0.0 | 0.00 | 0.00 | 0.00 | 87 | 1013.4 |
| 20260509104426 | 48 | 29 | 0.0 | 2.0 | 0.00 | 0.00 | 0.00 | 87 | 1013.6 |
| 20260509103923 | 48 | 13 | 1.0 | 2.0 | 0.00 | 0.00 | 0.00 | 87 | 1013.4 |
| 20260509103420 | 48 | 233 | 0.0 | 1.0 | 0.00 | 0.00 | 0.00 | 87 | 1013.4 |
| 20260509102918 | 48 | 36 | 0.0 | 2.0 | 0.00 | 0.00 | 0.00 | 87 | 1013.5 |
| 20260509102416 | 48 | 1 | 1.0 | 1.0 | 0.00 | 0.00 | 0.00 | 87 | 1013.4 |
| 20260509101911 | 48 | 76 | 0.0 | 1.0 | 0.00 | 0.00 | 0.00 | 87 | 1013.5 |
| 20260509101408 | 48 | 188 | 2.0 | 2.0 | 0.00 | 0.00 | 0.00 | 87 | 1013.6 |
| 20260509100905 | 48 | 32 | 0.0 | 2.0 | 0.00 | 0.00 | 0.00 | 86 | 1013.9 |
| 20260509100402 | 48 | 157 | 0.0 | 2.0 | 0.00 | 0.00 | 0.00 | 86 | 1013.5 |
| 20260509095859 | 48 | 319 | 0.0 | 3.0 | 0.00 | 0.00 | 0.00 | 85 | 1013.6 |
| 20260509095356 | 48 | 339 | 1.0 | 2.0 | 0.00 | 0.00 | 0.00 | 84 | 1013.3 |
| 20260509094853 | 49 | 334 | 2.0 | 2.0 | 0.00 | 0.00 | 0.00 | 84 | 1013.6 |
| 20260509094350 | 49 | 273 | 3.0 | 3.0 | 0.00 | 0.00 | 0.00 | 82 | 1013.2 |
| 20260509093848 | 49 | 94 | 4.0 | 9.0 | 0.00 | 0.00 | 0.00 | 85 | 1013.4 |
| 20260509093344 | 48 | 2 | 5.0 | 5.0 | 0.00 | 0.00 | 0.00 | 87 | 1013.3 |
| 20260509092843 | 48 | 83 | 2.0 | 3.0 | 0.00 | 0.00 | 0.00 | 86 | 1013.5 |
| 20260509092340 | 49 | 218 | 2.0 | 3.0 | 0.00 | 0.00 | 0.00 | 86 | 1013.3 |
| 20260509091838 | 49 | 133 | 1.0 | 2.0 | 0.00 | 0.00 | 0.00 | 85 | 1013.5 |
| 20260509091335 | 49 | 76 | 2.0 | 2.0 | 0.00 | 0.00 | 0.00 | 85 | 1013.6 |
| 20260509090832 | 49 | 296 | 2.0 | 3.0 | 0.00 | 0.00 | 0.00 | 85 | 1013.6 |
| 20260509090329 | 49 | 227 | 2.0 | 3.0 | 0.00 | 0.00 | 0.00 | 86 | 1013.4 |
| 20260509085826 | 49 | 114 | 0.0 | 3.0 | 0.00 | 0.00 | 0.00 | 86 | 1013.5 |
| 20260509085324 | 49 | 184 | 2.0 | 2.0 | 0.00 | 0.00 | 0.00 | 86 | 1013.5 |
| 20260509084820 | 49 | 234 | 2.0 | 3.0 | 0.00 | 0.00 | 0.00 | 85 | 1013.5 |
| 20260509084317 | 49 | 214 | 0.0 | 2.0 | 0.00 | 0.00 | 0.00 | 85 | 1013.6 |
| 20260509083815 | 49 | 11 | 2.0 | 3.0 | 0.00 | 0.00 | 0.00 | 85 | 1013.3 |
| 20260509083312 | 49 | 16 | 1.0 | 2.0 | 0.00 | 0.00 | 0.00 | 85 | 1013.3 |
| 20260509082808 | 49 | 19 | 2.0 | 3.0 | 0.00 | 0.00 | 0.00 | 85 | 1013.4 |
| 20260509082307 | 49 | 326 | 0.0 | 1.0 | 0.00 | 0.00 | 0.00 | 85 | 1013.5 |
| 20260509081802 | 49 | 113 | 0.0 | 0.0 | 0.00 | 0.00 | 0.00 | 84 | 1013.2 |
| 20260509081259 | 49 | 126 | 0.0 | 1.0 | 0.00 | 0.00 | 0.00 | 84 | 1013.5 |
| 20260509080758 | 49 | 101 | 0.0 | 0.0 | 0.00 | 0.00 | 0.00 | 84 | 1013.5 |
| 20260509080254 | 49 | 119 | 0.0 | 0.0 | 0.00 | 0.00 | 0.00 | 83 | 1013.4 |
| 20260509075753 | 49 | 119 | 0.0 | 0.0 | 0.00 | 0.00 | 0.00 | 84 | 1013.2 |
| 20260509075250 | 49 | 347 | 0.0 | 2.0 | 0.00 | 0.00 | 0.00 | 83 | 1013.2 |
| 20260509074747 | 49 | 31 | 1.0 | 2.0 | 0.00 | 0.00 | 0.00 | 84 | 1013.4 |
| 20260509074245 | 49 | 22 | 1.0 | 2.0 | 0.00 | 0.00 | 0.00 | 85 | 1013.3 |
| 20260509073740 | 49 | 52 | 0.0 | 0.0 | 0.00 | 0.00 | 0.00 | 85 | 1013.2 |
| 20260509073237 | 49 | 32 | 0.0 | 1.0 | 0.00 | 0.00 | 0.00 | 85 | 1013.2 |
| 20260509072734 | 49 | 202 | 0.0 | 1.0 | 0.00 | 0.00 | 0.00 | 85 | 1013.2 |
| 20260509072230 | 49 | 209 | 0.0 | 0.0 | 0.00 | 0.00 | 0.00 | 85 | 1013.3 |
| 20260509071727 | 49 | 76 | 0.0 | 1.0 | 0.00 | 0.00 | 0.00 | 84 | 1013.2 |
| 20260509071225 | 49 | 32 | 1.0 | 1.0 | 0.00 | 0.00 | 0.00 | 83 | 1013.1 |
| 20260509070721 | 49 | 32 | 0.0 | 1.0 | 0.00 | 0.00 | 0.00 | 83 | 1013.0 |
| 20260509070218 | 49 | 299 | 0.0 | 0.0 | 0.00 | 0.00 | 0.00 | 83 | 1013.4 |
| 20260509065714 | 49 | 81 | 2.0 | 2.0 | 0.00 | 0.00 | 0.00 | 83 | 1013.3 |
| 20260509065210 | 49 | 145 | 0.0 | 1.0 | 0.00 | 0.00 | 0.00 | 83 | 1013.4 |
| 20260509064707 | 49 | 147 | 0.0 | 1.0 | 0.00 | 0.00 | 0.00 | 84 | 1013.2 |
| 20260509064205 | 50 | 32 | 0.0 | 0.0 | 0.00 | 0.00 | 0.00 | 83 | 1013.3 |
| 20260509063702 | 50 | 181 | 0.0 | 0.0 | 0.00 | 0.00 | 0.00 | 83 | 1013.2 |
| 20260509063158 | 49 | 221 | 0.0 | 1.0 | 0.00 | 0.00 | 0.00 | 83 | 1013.7 |
| 20260509062655 | 49 | 119 | 0.0 | 1.0 | 0.00 | 0.00 | 0.00 | 83 | 1013.4 |
| 20260509062152 | 49 | 55 | 0.0 | 0.0 | 0.00 | 0.00 | 0.00 | 82 | 1013.3 |
| 20260509061649 | 49 | 41 | 1.0 | 1.0 | 0.00 | 0.00 | 0.00 | 81 | 1013.3 |
| 20260509061146 | 50 | 96 | 0.0 | 1.0 | 0.00 | 0.00 | 0.00 | 81 | 1013.4 |
| 20260509060644 | 50 | 44 | 0.0 | 0.0 | 0.00 | 0.00 | 0.00 | 81 | 1013.4 |
| 20260509060140 | 50 | 142 | 0.0 | 1.0 | 0.00 | 0.00 | 0.00 | 81 | 1013.5 |
| 20260509055636 | 50 | 49 | 0.0 | 1.0 | 0.00 | 0.00 | 0.00 | 82 | 1013.6 |
| 20260509055132 | 50 | 141 | 0.0 | 0.0 | 0.00 | 0.00 | 0.00 | 81 | 1013.7 |
| 20260509054629 | 50 | 201 | 0.0 | 1.0 | 0.00 | 0.00 | 0.00 | 83 | 1013.7 |
| 20260509054126 | 50 | 32 | 0.0 | 0.0 | 0.00 | 0.00 | 0.00 | 82 | 1013.7 |
| 20260509053625 | 50 | 135 | 0.0 | 0.0 | 0.00 | 0.00 | 0.00 | 82 | 1013.9 |
| 20260509053121 | 50 | 199 | 0.0 | 1.0 | 0.00 | 0.00 | 0.00 | 83 | 1013.9 |
| 20260509052619 | 50 | 147 | 0.0 | 0.0 | 0.00 | 0.00 | 0.00 | 83 | 1013.7 |
| 20260509052116 | 50 | 89 | 0.0 | 0.0 | 0.00 | 0.00 | 0.00 | 82 | 1014.0 |
| 20260509051614 | 50 | 98 | 0.0 | 1.0 | 0.00 | 0.00 | 0.00 | 80 | 1014.2 |
| 20260509051111 | 50 | 147 | 0.0 | 0.0 | 0.00 | 0.00 | 0.00 | 80 | 1014.0 |
| 20260509050609 | 50 | 103 | 0.0 | 0.0 | 0.00 | 0.00 | 0.00 | 81 | 1014.2 |
| 20260509050104 | 50 | 174 | 0.0 | 0.0 | 0.00 | 0.00 | 0.00 | 80 | 1014.1 |
| 20260509045603 | 50 | 89 | 0.0 | 1.0 | 0.00 | 0.00 | 0.00 | 80 | 1014.3 |
| 20260509045058 | 50 | 233 | 0.0 | 0.0 | 0.00 | 0.00 | 0.00 | 80 | 1014.5 |
| 20260509044556 | 50 | 185 | 0.0 | 1.0 | 0.00 | 0.00 | 0.00 | 80 | 1014.4 |
| 20260509044053 | 50 | 124 | 0.0 | 1.0 | 0.00 | 0.00 | 0.00 | 79 | 1014.2 |
| 20260509043550 | 50 | 79 | 2.0 | 3.0 | 0.00 | 0.00 | 0.00 | 80 | 1014.3 |
| 20260509043045 | 50 | 242 | 1.0 | 4.0 | 0.00 | 0.00 | 0.00 | 79 | 1014.2 |
| 20260509042542 | 50 | 63 | 3.0 | 4.0 | 0.00 | 0.00 | 0.00 | 79 | 1014.1 |
| 20260509042038 | 50 | 131 | 0.0 | 0.0 | 0.00 | 0.00 | 0.00 | 79 | 1014.2 |
| 20260509041535 | 50 | 89 | 0.0 | 0.0 | 0.00 | 0.00 | 0.00 | 79 | 1014.4 |
| 20260509041033 | 50 | 212 | 0.0 | 1.0 | 0.00 | 0.00 | 0.00 | 78 | 1014.5 |
| 20260509040531 | 50 | 218 | 0.0 | 0.0 | 0.00 | 0.00 | 0.00 | 79 | 1014.3 |
| 20260509040027 | 51 | 157 | 0.0 | 0.0 | 0.00 | 0.00 | 0.00 | 78 | 1014.4 |
| 20260509035524 | 51 | 135 | 0.0 | 0.0 | 0.00 | 0.00 | 0.00 | 77 | 1014.4 |
| 20260509035021 | 51 | 119 | 0.0 | 1.0 | 0.00 | 0.00 | 0.00 | 78 | 1014.4 |
| 20260509034519 | 51 | 48 | 1.0 | 2.0 | 0.00 | 0.00 | 0.00 | 79 | 1014.3 |
| 20260509034016 | 51 | 18 | 1.0 | 2.0 | 0.00 | 0.00 | 0.00 | 79 | 1014.5 |
| 20260509033513 | 51 | 42 | 1.0 | 2.0 | 0.00 | 0.00 | 0.00 | 78 | 1014.5 |
| 20260509033010 | 51 | 249 | 0.0 | 0.0 | 0.00 | 0.00 | 0.00 | 77 | 1014.4 |
| 20260509032507 | 51 | 195 | 1.0 | 1.0 | 0.00 | 0.00 | 0.00 | 78 | 1014.4 |
| 20260509032004 | 51 | 173 | 0.0 | 2.0 | 0.00 | 0.00 | 0.00 | 76 | 1014.3 |
| 20260509031501 | 51 | 89 | 0.0 | 1.0 | 0.00 | 0.00 | 0.00 | 76 | 1014.5 |
| 20260509030958 | 51 | 89 | 0.0 | 1.0 | 0.00 | 0.00 | 0.00 | 76 | 1014.5 |
| 20260509030456 | 51 | 18 | 1.0 | 2.0 | 0.00 | 0.00 | 0.00 | 77 | 1014.5 |
| 20260509025953 | 51 | 144 | 0.0 | 0.0 | 0.00 | 0.00 | 0.00 | 77 | 1014.3 |
| 20260509025449 | 51 | 185 | 0.0 | 1.0 | 0.00 | 0.00 | 0.00 | 77 | 1014.4 |
| 20260509024944 | 52 | 216 | 1.0 | 2.0 | 0.00 | 0.00 | 0.00 | 74 | 1014.5 |
| 20260509024441 | 52 | 186 | 0.0 | 2.0 | 0.00 | 0.00 | 0.00 | 74 | 1014.4 |
| 20260509023938 | 52 | 283 | 0.0 | 0.0 | 0.00 | 0.00 | 0.00 | 74 | 1014.4 |
| 20260509023435 | 53 | 39 | 1.0 | 2.0 | 0.00 | 0.00 | 0.00 | 72 | 1014.4 |
| 20260509022932 | 53 | 39 | 0.0 | 1.0 | 0.00 | 0.00 | 0.00 | 72 | 1014.3 |
| 20260509022429 | 53 | 58 | 0.0 | 2.0 | 0.00 | 0.00 | 0.00 | 72 | 1014.1 |
| 20260509021926 | 53 | 69 | 2.0 | 2.0 | 0.00 | 0.00 | 0.00 | 71 | 1014.3 |
| 20260509021423 | 53 | 50 | 1.0 | 1.0 | 0.00 | 0.00 | 0.00 | 72 | 1014.3 |
| 20260509020920 | 53 | 316 | 0.0 | 1.0 | 0.00 | 0.00 | 0.00 | 73 | 1014.3 |
| 20260509020419 | 53 | 80 | 0.0 | 2.0 | 0.00 | 0.00 | 0.00 | 72 | 1014.4 |
| 20260509015915 | 53 | 86 | 2.0 | 3.0 | 0.00 | 0.00 | 0.00 | 69 | 1014.5 |
| 20260509015414 | 53 | 89 | 0.0 | 2.0 | 0.00 | 0.00 | 0.00 | 70 | 1014.4 |
| 20260509014910 | 53 | 113 | 0.0 | 0.0 | 0.00 | 0.00 | 0.00 | 70 | 1014.4 |
| 20260509014407 | 53 | 32 | 0.0 | 0.0 | 0.00 | 0.00 | 0.00 | 71 | 1014.3 |
| 20260509013903 | 53 | 303 | 0.0 | 2.0 | 0.00 | 0.00 | 0.00 | 69 | 1014.5 |
| 20260509013400 | 53 | 174 | 0.0 | 0.0 | 0.00 | 0.00 | 0.00 | 70 | 1014.4 |
| 20260509012856 | 53 | 246 | 1.0 | 1.0 | 0.00 | 0.00 | 0.00 | 69 | 1014.4 |
| 20260509012353 | 54 | 204 | 1.0 | 1.0 | 0.00 | 0.00 | 0.00 | 69 | 1014.4 |
| 20260509011850 | 54 | 51 | 1.0 | 2.0 | 0.00 | 0.00 | 0.00 | 66 | 1014.3 |
| 20260509011347 | 53 | 44 | 0.0 | 0.0 | 0.00 | 0.00 | 0.00 | 67 | 1014.3 |
| 20260509010845 | 54 | 58 | 0.0 | 0.0 | 0.00 | 0.00 | 0.00 | 66 | 1013.9 |
| 20260509010342 | 54 | 350 | 1.0 | 3.0 | 0.00 | 0.00 | 0.00 | 65 | 1013.6 |
| 20260509005839 | 54 | 73 | 0.0 | 1.0 | 0.00 | 0.00 | 0.00 | 66 | 1013.6 |
| 20260509005337 | 54 | 50 | 0.0 | 1.0 | 0.00 | 0.00 | 0.00 | 63 | 1013.5 |
| 20260509004832 | 54 | 109 | 1.0 | 2.0 | 0.00 | 0.00 | 0.00 | 64 | 1013.5 |
| 20260509004328 | 55 | 296 | 1.0 | 3.0 | 0.00 | 0.00 | 0.00 | 63 | 1013.7 |
| 20260509003826 | 56 | 124 | 0.0 | 2.0 | 0.00 | 0.00 | 0.00 | 61 | 1014.0 |
| 20260509003324 | 56 | 55 | 0.0 | 1.0 | 0.00 | 0.00 | 0.00 | 56 | 1014.0 |
| 20260509002821 | 56 | 228 | 0.0 | 0.0 | 0.00 | 0.00 | 0.00 | 57 | 1013.9 |
| 20260509002318 | 57 | 230 | 0.0 | 1.0 | 0.00 | 0.00 | 0.00 | 56 | 1014.2 |
| 20260509001816 | 58 | 213 | 1.0 | 1.0 | 0.00 | 0.00 | 0.00 | 55 | 1013.9 |
| 20260509001311 | 59 | 221 | 1.0 | 2.0 | 0.00 | 0.00 | 0.00 | 52 | 1014.0 |
| 20260509000809 | 60 | 122 | 3.0 | 4.0 | 0.00 | 0.00 | 0.00 | 45 | 1013.9 |
| 20260509000306 | 60 | 32 | 0.0 | 1.0 | 0.00 | 0.00 | 0.00 | 43 | 1014.1 |
| 20260508235757 | 61 | 124 | 3.0 | 3.0 | 0.00 | 0.00 | 0.00 | 39 | 1014.1 |
| 20260508235254 | 62 | 89 | 0.0 | 1.0 | 0.00 | 0.00 | 0.00 | 38 | 1014.1 |
| 20260508234751 | 63 | 125 | 2.0 | 2.0 | 0.00 | 0.00 | 0.00 | 37 | 1013.7 |
| 20260508234247 | 62 | 150 | 0.0 | 4.0 | 0.00 | 0.00 | 0.00 | 38 | 1013.4 |
| 20260508233747 | 63 | 246 | 0.0 | 3.0 | 0.00 | 0.00 | 0.00 | 40 | 1013.6 |
| 20260508233245 | 63 | 334 | 1.0 | 4.0 | 0.00 | 0.00 | 0.00 | 34 | 1013.7 |
| 20260508232742 | 64 | 77 | 1.0 | 3.0 | 0.00 | 0.00 | 0.00 | 37 | 1013.6 |
| 20260508232238 | 64 | 23 | 3.0 | 5.0 | 0.00 | 0.00 | 0.00 | 37 | 1013.7 |
| 20260508231736 | 64 | 0 | 4.0 | 4.0 | 0.00 | 0.00 | 0.00 | 35 | 1013.9 |
| 20260508231232 | 65 | 226 | 0.0 | 3.0 | 0.00 | 0.00 | 0.00 | 34 | 1013.5 |
| 20260508230729 | 65 | 251 | 2.0 | 5.0 | 0.00 | 0.00 | 0.00 | 33 | 1013.4 |
| 20260508230225 | 66 | 10 | 6.0 | 6.0 | 0.00 | 0.00 | 0.00 | 35 | 1013.6 |
| 20260508225724 | 66 | 35 | 2.0 | 6.0 | 0.00 | 0.00 | 0.00 | 33 | 1013.7 |
| 20260508225220 | 66 | 180 | 1.0 | 9.0 | 0.00 | 0.00 | 0.00 | 33 | 1013.6 |
| 20260508224718 | 67 | 213 | 4.0 | 5.0 | 0.00 | 0.00 | 0.00 | 32 | 1013.5 |
| 20260508224215 | 68 | 307 | 2.0 | 6.0 | 0.00 | 0.00 | 0.00 | 31 | 1013.6 |
| 20260508223713 | 66 | 0 | 0.0 | 3.0 | 0.00 | 0.00 | 0.00 | 34 | 1013.7 |
| 20260508223210 | 66 | 359 | 4.0 | 8.0 | 0.00 | 0.00 | 0.00 | 34 | 1013.4 |
| 20260508222707 | 67 | 221 | 5.0 | 8.0 | 0.00 | 0.00 | 0.00 | 35 | 1013.3 |
| 20260508222204 | 66 | 184 | 1.0 | 5.0 | 0.00 | 0.00 | 0.00 | 38 | 1013.6 |
| 20260508221700 | 66 | 245 | 4.0 | 6.0 | 0.00 | 0.00 | 0.00 | 32 | 1013.5 |
| 20260508221156 | 66 | 217 | 6.0 | 10.0 | 0.00 | 0.00 | 0.00 | 32 | 1013.7 |
| 20260508220653 | 66 | 153 | 3.0 | 5.0 | 0.00 | 0.00 | 0.00 | 34 | 1013.7 |
| 20260508220149 | 66 | 237 | 4.0 | 6.0 | 0.00 | 0.00 | 0.00 | 32 | 1013.5 |
| 20260508215646 | 64 | 208 | 4.0 | 5.0 | 0.00 | 0.00 | 0.00 | 35 | 1013.9 |
| 20260508215143 | 66 | 228 | 3.0 | 11.0 | 0.00 | 0.00 | 0.00 | 32 | 1013.9 |
| 20260508214640 | 66 | 203 | 0.0 | 9.0 | 0.00 | 0.00 | 0.00 | 36 | 1013.7 |
| 20260508214137 | 65 | 184 | 4.0 | 13.0 | 0.00 | 0.00 | 0.00 | 34 | 1014.0 |
| 20260508213634 | 63 | 187 | 4.0 | 8.0 | 0.00 | 0.00 | 0.00 | 35 | 1014.0 |
| 20260508213130 | 64 | 180 | 4.0 | 5.0 | 0.00 | 0.00 | 0.00 | 35 | 1013.9 |
| 20260508212626 | 66 | 236 | 2.0 | 8.0 | 0.00 | 0.00 | 0.00 | 35 | 1013.9 |
| 20260508212123 | 66 | 343 | 3.0 | 5.0 | 0.00 | 0.00 | 0.00 | 34 | 1013.9 |
| 20260508211618 | 64 | 169 | 0.0 | 4.0 | 0.00 | 0.00 | 0.00 | 35 | 1014.0 |
| 20260508211115 | 64 | 287 | 2.0 | 4.0 | 0.00 | 0.00 | 0.00 | 35 | 1013.9 |
| 20260508210611 | 64 | 178 | 2.0 | 9.0 | 0.00 | 0.00 | 0.00 | 35 | 1014.2 |
| 20260508210109 | 64 | 95 | 4.0 | 7.0 | 0.00 | 0.00 | 0.00 | 39 | 1014.2 |
| 20260508205606 | 64 | 167 | 2.0 | 6.0 | 0.00 | 0.00 | 0.00 | 33 | 1014.4 |
| 20260508205102 | 66 | 144 | 2.0 | 7.0 | 0.00 | 0.00 | 0.00 | 35 | 1014.5 |
| 20260508204559 | 66 | 240 | 10.0 | 16.0 | 0.00 | 0.00 | 0.00 | 34 | 1014.4 |
| 20260508204054 | 66 | 261 | 8.0 | 13.0 | 0.00 | 0.00 | 0.00 | 33 | 1014.3 |
| 20260508203551 | 66 | 86 | 0.0 | 7.0 | 0.00 | 0.00 | 0.00 | 35 | 1014.3 |
| 20260508203047 | 65 | 152 | 2.0 | 10.0 | 0.00 | 0.00 | 0.00 | 33 | 1014.4 |
| 20260508202544 | 66 | 269 | 9.0 | 13.0 | 0.00 | 0.00 | 0.00 | 34 | 1014.4 |
| 20260508202041 | 64 | 235 | 4.0 | 6.0 | 0.00 | 0.00 | 0.00 | 37 | 1014.3 |
| 20260508201538 | 64 | 262 | 2.0 | 6.0 | 0.00 | 0.00 | 0.00 | 35 | 1014.5 |
| 20260508201034 | 64 | 212 | 6.0 | 9.0 | 0.00 | 0.00 | 0.00 | 36 | 1014.6 |
| 20260508200531 | 64 | 192 | 5.0 | 11.0 | 0.00 | 0.00 | 0.00 | 37 | 1014.6 |
| 20260508200027 | 64 | 240 | 4.0 | 9.0 | 0.00 | 0.00 | 0.00 | 36 | 1014.6 |
| 20260508195524 | 64 | 226 | 5.0 | 11.0 | 0.00 | 0.00 | 0.00 | 37 | 1014.9 |
| 20260508195020 | 64 | 217 | 4.0 | 6.0 | 0.00 | 0.00 | 0.00 | 35 | 1015.1 |
| 20260508194517 | 62 | 313 | 2.0 | 11.0 | 0.00 | 0.00 | 0.00 | 37 | 1015.5 |
| 20260508194015 | 62 | 261 | 4.0 | 10.0 | 0.00 | 0.00 | 0.00 | 40 | 1015.6 |
| 20260508193511 | 61 | 330 | 0.0 | 7.0 | 0.00 | 0.00 | 0.00 | 38 | 1015.5 |
| 20260508193008 | 61 | 289 | 3.0 | 5.0 | 0.00 | 0.00 | 0.00 | 41 | 1015.5 |
| 20260508192504 | 61 | 43 | 2.0 | 3.0 | 0.00 | 0.00 | 0.00 | 41 | 1015.7 |
| 20260508192001 | 62 | 11 | 3.0 | 4.0 | 0.00 | 0.00 | 0.00 | 38 | 1015.5 |
| 20260508191458 | 61 | 233 | 2.0 | 3.0 | 0.00 | 0.00 | 0.00 | 40 | 1015.6 |
| 20260508190955 | 62 | 162 | 2.0 | 4.0 | 0.00 | 0.00 | 0.00 | 39 | 1015.8 |
| 20260508190452 | 62 | 341 | 2.0 | 7.0 | 0.00 | 0.00 | 0.00 | 40 | 1015.8 |
| 20260508185948 | 62 | 225 | 6.0 | 7.0 | 0.00 | 0.00 | 0.00 | 38 | 1016.0 |
| 20260508185446 | 61 | 215 | 5.0 | 14.0 | 0.00 | 0.00 | 0.00 | 40 | 1016.1 |
| 20260508184943 | 61 | 237 | 3.0 | 6.0 | 0.00 | 0.00 | 0.00 | 41 | 1016.2 |
| 20260508184441 | 61 | 253 | 4.0 | 5.0 | 0.00 | 0.00 | 0.00 | 40 | 1016.1 |
| 20260508183937 | 61 | 180 | 3.0 | 7.0 | 0.00 | 0.00 | 0.00 | 40 | 1016.1 |
| 20260508183433 | 63 | 31 | 5.0 | 12.0 | 0.00 | 0.00 | 0.00 | 39 | 1016.3 |
| 20260508182928 | 62 | 338 | 7.0 | 9.0 | 0.00 | 0.00 | 0.00 | 38 | 1016.2 |
| 20260508182426 | 61 | 44 | 3.0 | 5.0 | 0.00 | 0.00 | 0.00 | 40 | 1016.4 |
| 20260508181921 | 61 | 135 | 0.0 | 6.0 | 0.00 | 0.00 | 0.00 | 38 | 1016.4 |
| 20260508181418 | 61 | 39 | 4.0 | 5.0 | 0.00 | 0.00 | 0.00 | 39 | 1016.5 |
| 20260508180915 | 61 | 227 | 7.0 | 9.0 | 0.00 | 0.00 | 0.00 | 40 | 1016.3 |
| 20260508180412 | 61 | 7 | 4.0 | 6.0 | 0.00 | 0.00 | 0.00 | 39 | 1016.4 |
| 20260508175908 | 62 | 227 | 6.0 | 7.0 | 0.00 | 0.00 | 0.00 | 40 | 1016.6 |
| 20260508175405 | 60 | 34 | 2.0 | 5.0 | 0.00 | 0.00 | 0.00 | 37 | 1016.6 |
| 20260508174903 | 61 | 319 | 5.0 | 14.0 | 0.00 | 0.00 | 0.00 | 39 | 1016.7 |
| 20260508174400 | 61 | 246 | 5.0 | 11.0 | 0.00 | 0.00 | 0.00 | 41 | 1016.7 |
| 20260508173856 | 61 | 208 | 7.0 | 10.0 | 0.00 | 0.00 | 0.00 | 38 | 1016.4 |
| 20260508173354 | 62 | 233 | 8.0 | 14.0 | 0.00 | 0.00 | 0.00 | 38 | 1016.3 |
| 20260508172849 | 62 | 10 | 0.0 | 13.0 | 0.00 | 0.00 | 0.00 | 37 | 1016.6 |
| 20260508172347 | 62 | 247 | 7.0 | 8.0 | 0.00 | 0.00 | 0.00 | 42 | 1016.5 |
| 20260508171843 | 61 | 192 | 7.0 | 11.0 | 0.00 | 0.00 | 0.00 | 38 | 1016.7 |
| 20260508171339 | 61 | 237 | 8.0 | 10.0 | 0.00 | 0.00 | 0.00 | 40 | 1016.9 |
| 20260508170836 | 62 | 251 | 5.0 | 15.0 | 0.00 | 0.00 | 0.00 | 36 | 1016.9 |